Location: Franzen
(48.6167°N, 15.3833°E)
Time: 07:36:16
(UTC+00:00)

Transit 2A - Pass Details

Date: 09 August 2021
Orbit: 594 x 964 km, 66.7° (Epoch: 24 September)

Event Time Altitude Azimuth Distance (km) Brightness Sun altitude
Rises 11:04:35 0° 326° (NW) 3,224 9.0 57.1°
Reaches altitude 10° 11:06:56 10° 331° (NNW) 2,352 8.4 57.1°
Maximum altitude 11:12:18 57° 50° (NE) 995 7.1 57.0°
Drops below altitude 10° 11:18:11 10° 128° (SE) 2,576 9.1 57.0°
Sets 11:20:51 0° 133° (SE) 3,556 9.7 56.9°
